Location: Pontbriand
(46.1542°N, 71.2542°W)
Time: 12:17:20
(UTC+00:00)

Envisat - Pass Details

Date: 06 December 2021
Orbit: 764 x 766 km, 98.2° (Epoch: 20 January)

Event Time Altitude Azimuth Distance (km) Brightness Sun altitude
Rises 10:56:59 0° 3° (N) 3,245 6.1 -12.6°
Reaches altitude 10° 10:59:36 10° 352° (N) 2,314 5.2 -12.2°
Maximum altitude 11:03:48 27° 296° (WNW) 1,449 3.9 -11.5°
Drops below altitude 10° 11:08:00 10° 240° (WSW) 2,300 5.1 -10.8°
Sets 11:10:35 0° 229° (SW) 3,221 6.0 -10.4°
